Location: La Oliva
(42.2466°N, 2.9955°E)
Time: 15:10:56
(UTC+00:00)

Daily predictions for brighter satellites

Satellite Brightness Start Highest point End
(mag) Time Altitude Azimuth Time Altitude Azimuth Time Altitude Azimuth
Cosmos 1092 Rocket 4.1 18:56:15 10° N 19:02:25 59° E 19:08:29 10° SSE
Cosmos 2297 Rocket 3.3 18:59:07 10° SSE 19:03:24 23° E 19:07:44 10° NE
Cosmos 2058 3.6 19:01:03 10° N 19:04:56 36° ENE 19:08:45 10° SE
SL-08 RB Rocket 4.0 19:00:58 10° S 19:05:37 79° WSW 19:10:15 10° NNW
Cosmos 405 2.9 19:02:10 10° S 19:05:37 86° E 19:09:07 10° N
Lacrosse 5 rocket 4.2 19:04:35 10° NNW 19:06:10 12° N 19:07:46 10° NNE
ARGOS 3.8 19:01:25 10° S 19:06:44 59° W 19:12:03 10° NNW
YAOGAN 1 4.0 19:03:27 10° S 19:07:33 42° W 19:11:40 10° NNW
FALCON 9 DEB 3.6 19:06:21 10° SSW 19:09:03 30° SE 19:11:46 10° ENE
Resurs 01 Rocket 3.4 19:09:22 10° E 19:12:01 16° ENE 19:14:41 10° NNE
Cosmos 2219 4.2 19:08:07 10° SSE 19:12:31 24° ESE 19:16:57 10° NE
BREEZE-M DEB (TANK) 3.8 19:11:07 10° W 19:14:24 55° NNW 19:24:25 10° ENE
Cosmos 2333 Rocket 2.5 19:11:37 10° NNW 19:17:21 71° WSW 19:23:01 10° SSE
SJ-6B 3.1 19:13:52 10° SE 19:17:24 44° ENE 19:21:01 10° N
SAR-Lupe-4 4.0 19:16:13 10° N 19:19:47 67° WNW 19:23:20 10° SSW
Cosmos 1689 Rocket 3.7 19:17:19 10° N 19:19:57 37° WNW 19:22:34 10° SW
Cosmos 2084 Rocket 4.4 19:17:25 10° S 19:20:34 23° ESE 19:23:45 10° ENE
FALCON 9 DEB 3.1 19:18:10 10° SSW 19:21:04 44° SE 19:23:59 10° ENE
Cosmos 389 Rocket 3.3 19:18:23 10° SSE 19:21:29 30° E 19:24:37 10° NNE
CZ-2C R/B 3.6 19:17:14 10° N 19:22:17 52° WNW 19:27:24 10° SSW
Cosmos 2098 Rocket 4.5 19:15:35 10° N 19:22:57 90° E 19:30:15 10° S
CSL-04 Rocket 4.1 19:18:26 10° S 19:23:41 65° WSW 19:28:56 10° NNW
Ariane Rocket 3.5 19:19:10 10° SE 19:23:53 42° ENE 19:28:37 10° N
Cosmos 2322 4.3 19:18:38 10° NNW 19:24:12 59° WSW 19:29:44 10° S
ERS-2 2.5 19:20:53 10° N 19:24:31 69° WNW 19:28:07 10° SSW
Cosmos 614 Rocket 3.9 19:19:44 10° S 19:24:47 62° ESE 19:29:50 10° NNE
Cosmos 2251 Rocket 3.6 19:21:09 10° SSW 19:26:31 89° ESE 19:31:53 10° NNE
Cosmos 2279 Rocket 4.2 19:25:42 10° SSE 19:31:36 50° E 19:37:32 10° NNE
ATLAS 3B R/B 2.9 19:24:31 10° NW 19:31:37 89° NE 19:39:00 10° SSE
MOS 1 4.4 19:31:39 10° SSE 19:37:10 59° ENE 19:42:44 10° N
Cosmos-2242 4.4 19:35:48 15° SE 19:37:55 21° E 19:41:08 10° NE
Cosmos 1980 4.0 19:34:11 10° NNW 19:39:44 50° ENE 19:44:11 16° SE
SL-16 R/B 3.8 19:35:53 10° N 19:39:58 20° NE 19:43:25 12° E
Cosmos 2026 Rocket 4.0 19:34:24 10° N 19:40:31 90° W 19:46:41 10° S
SME Rocket 4.5 19:37:42 10° N 19:41:38 48° WNW 19:46:53 10° SW
Cosmos 2151 4.1 19:38:20 10° NNE 19:42:00 27° ENE 19:44:10 18° ESE
FALCON 9 DEB 2.8 19:39:50 10° SW 19:42:51 61° SE 19:45:52 10° ENE
SPOT 3 Rocket 4.4 19:40:39 16° ESE 19:44:12 34° ENE 19:48:49 10° N
Cosmos 1455 3.5 19:42:07 10° SSW 19:45:40 42° WNW 19:49:15 10° N
COSMOS 2455 3.8 19:41:46 10° SSE 19:46:31 25° ESE 19:51:18 10° NE
IRS-1A Rocket 4.3 19:43:56 10° SSE 19:49:29 76° ENE 19:55:12 10° N
SL-4 R/B 2.1 19:45:27 10° SW 19:49:41 65° SE 19:54:15 10° ENE
USA 186 3.3 19:49:25 10° SSW 19:52:30 36° W 19:55:27 10° NNW
BREEZE M DEB (TANK) 3.8 19:50:16 10° SSW 19:53:12 35° SE 20:00:11 10° ENE
Cosmos 2219 Rocket 3.4 19:49:01 10° NW 19:54:20 41° WSW 19:59:36 10° S
BREEZE-M DEB (TANK) 3.7 19:53:00 10° W 19:55:06 22° SSW 19:57:33 13° SSE
IGS 5A 4.3 19:54:21 22° ESE 19:56:11 33° ENE 19:59:55 10° N
OBJECT-B 1.6 19:54:04 10° S 19:57:12 50° W 20:00:22 10° NNW
Cosmos 1076 Rocket 3.4 19:54:01 10° N 19:58:22 76° E 20:01:45 16° SSE
COSMOS 2428 3.7 19:53:10 10° NW 19:58:37 46° WSW 20:04:03 10° S
ATLAS 5 CENTAUR R/B 2.0 19:57:45 10° WNW 19:59:34 35° SW 20:01:00 20° S
Cosmos 2344 4.1 19:56:45 10° SW 20:04:08 60° NW 20:11:56 10° NNE
Cosmos 2292 Rocket 4.0 19:58:43 10° N 20:05:00 78° E 20:08:34 18° SSE
ARIANE 5 R/B 4.2 20:04:04 18° E 20:05:04 19° ENE 20:08:09 10° NNE
Cosmos 407 Rocket 3.3 20:00:14 10° SSW 20:05:20 77° ESE 20:10:31 10° NNE
Cosmos 1356 3.8 20:02:49 10° NNW 20:06:12 63° W 20:08:39 17° S
SL-8 R/B 4.5 20:01:49 10° WNW 20:06:24 43° SW 20:09:04 22° SSE
IRIDIUM 104 4.2 20:04:20 10° S 20:09:31 80° E 20:14:46 10° N
Cosmos 1023 Rocket 4.3 20:05:21 10° SSW 20:10:24 77° ESE 20:15:30 10° NNE
Meteor 2-3 Rocket 3.9 20:09:19 10° N 20:14:57 53° ENE 20:17:47 28° SE
Cosmos 44 Rocket 3.8 20:12:18 10° S 20:16:55 37° ESE 20:21:39 10° NE
Cosmos 405 Rocket 3.7 20:14:32 10° NNW 20:18:22 46° W 20:21:34 13° SSW
Cosmos 1140 Rocket 3.4 20:13:29 10° SSW 20:18:36 88° ESE 20:23:46 10° NNE
IRIDIUM 114 4.3 20:13:27 10° S 20:18:40 84° W 20:23:55 10° N
NOSS 0 Rocket 4.4 20:13:37 10° NNW 20:19:43 59° WSW 20:24:40 16° S
Cosmos 1812 Rocket 3.8 20:16:07 10° SSW 20:20:32 72° W 20:25:01 10° N
Cosmos 1954 Rocket 4.1 20:19:29 21° S 20:22:44 49° ESE 20:27:43 10° NNE
Timation 2 Rocket 4.0 20:18:53 10° SSW 20:25:30 84° ESE 20:31:52 10° NNE
Hubble Space Telescope 3.2 20:24:16 10° SSW 20:24:29 10° SSW 20:24:29 10° SSW
CZ-2C R/B 3.7 20:21:49 10° NNE 20:26:11 56° E 20:27:43 36° SSE
Cosmos 2237 Rocket 2.3 20:21:56 10° NNW 20:27:35 74° WSW 20:30:47 26° S
Meteor 2-21 4.4 20:23:54 10° N 20:29:59 88° W 20:34:06 22° S
Cosmos 2263 Rocket 4.3 20:34:37 11° ENE 20:34:37 11° ENE 20:34:54 10° ENE
Spot 2 Rocket 4.0 20:32:07 35° ESE 20:33:21 41° ENE 20:38:06 10° N
BREEZE M DEB (TANK) 3.8 20:25:17 10° WSW 20:33:59 48° NNW 20:36:34 14° NE
Cosmos 1766 Rocket 4.0 20:32:02 10° N 20:36:10 41° ENE 20:36:22 41° E
FALCON 9 DEB 4.3 20:37:12 10° W 20:40:04 37° NNW 20:41:38 21° NNE
Cosmos 2227 Rocket 2.3 20:34:39 10° SSW 20:40:18 75° WNW 20:45:59 10° NNE
Cosmos 2082 3.7 20:37:15 25° S 20:40:28 58° ESE 20:45:59 10° NNE
Cosmos 1633 3.2 20:38:56 10° NNW 20:42:25 50° W 20:43:20 39° SW
Okean 3 Rocket 3.7 20:40:56 10° N 20:45:22 53° E 20:45:39 52° E
Lacrosse 5 rocket 4.1 20:44:52 10° NNW 20:46:59 13° NNE 20:49:08 10° NE
Cosmos 2297 Rocket 3.0 20:41:33 10° SW 20:47:02 52° WNW 20:52:35 10° NNE
Cosmos 1655 Rocket 4.1 20:40:55 10° N 20:47:10 75° W 20:50:54 26° S
Cosmos 1869 3.3 20:47:58 61° ENE 20:47:58 61° ENE 20:51:34 10° NNE
Resurs 01 Rocket 2.2 20:46:10 31° SSW 20:48:04 54° W 20:52:27 10° NNW
Meteor 1-4 Rocket 3.5 20:50:30 37° NNE 20:50:30 37° NNE 20:52:48 10° NNE
Genesis I 3.4 20:48:20 10° NW 20:52:19 65° WSW 20:52:33 63° SW
Cosmos 2219 4.1 20:50:55 10° SW 20:56:19 48° WNW 21:01:46 10° NNE
Terra 2.8 21:03:52 34° ENE 21:03:52 34° ENE 21:07:51 10° N
Cosmos 1763 Rocket 3.8 20:59:13 10° N 21:04:07 47° ENE 21:04:17 47° ENE
Meteor 2-8 Rocket 4.3 21:02:56 37° S 21:05:32 87° E 21:11:42 10° N
BREEZE-M DEB (TANK) 4.2 21:07:53 10° WNW 21:08:46 22° NW 21:08:46 22° NW
SPOT 5 3.0 21:14:08 58° NE 21:14:08 58° NE 21:18:32 10° N
SPOT 1/Viking Rocket 3.8 21:14:16 50° SSW 21:15:27 64° WSW 21:20:39 10° NNW
Meteor 2-2 Rocket 4.3 21:15:41 59° E 21:15:45 59° E 21:21:21 10° NNE
NOSS 3-1 (C) 4.4 21:10:10 10° NNW 21:17:33 57° NE 21:20:23 40° ESE
USA 215 3.3 21:21:35 48° E 21:23:27 69° NE 21:29:56 10° NW
SL-16 R/B 2.2 21:19:00 10° NNW 21:24:41 73° WSW 21:25:19 65° SSW
SL-4 R/B 3.7 21:25:29 10° W 21:29:37 36° NNW 21:33:32 12° NE
COSMOS 2455 3.4 21:26:09 10° SW 21:32:03 55° NW 21:37:59 10° NNE
ERS-1 Rocket 2.9 21:33:53 81° NW 21:33:53 81° NW 21:38:42 10° NNW
Cosmos 1408 Rocket 4.2 21:31:34 10° N 21:34:52 51° NNW 21:34:52 51° NNW
Cosmos 2221 3.6 21:41:54 40° N 21:41:54 40° N 21:44:43 10° N
ARIANE 5 R/B 3.6 21:41:36 41° W 21:41:36 41° W 21:45:24 10° NNW
Meteor 2-15 Rocket 4.3 21:43:55 73° SW 21:44:30 82° W 21:50:36 10° N
Cosmos 1943 3.8 21:45:08 10° NNW 21:50:06 45° NE 21:50:06 45° NE
Cosmos 1745 Rocket 4.2 21:47:34 10° N 21:53:25 58° ENE 21:53:25 58° ENE
S3M 4.1 22:05:25 70° NE 22:05:25 70° NE 22:11:15 10° N
BREEZE-M DEB (TANK) 4.4 22:01:28 10° WNW 22:06:20 39° NW 22:06:20 39° NW
Cosmos 2263 Rocket 2.7 22:16:15 55° N 22:16:15 55° N 22:20:41 10° NNE
Aureole 1 Rocket 4.2 22:17:35 51° NW 22:17:35 51° NW 22:21:37 10° N
USA 229 DEB 3.8 22:19:30 10° NW 22:26:55 89° NE 22:27:01 88° ESE
USA 229 3.8 22:19:35 10° NW 22:27:01 88° ENE 22:27:07 87° ESE
Lacrosse 5 rocket 3.5 22:23:11 10° NNW 22:25:35 26° N 22:25:35 26° N
Cosmos 1603 4.5 22:33:41 10° NNW 22:37:52 49° NW 22:37:52 49° NW
Terra 3.8 22:42:44 22° WNW 22:42:44 22° WNW 22:45:19 10° NW
NOSS 3-1 (A) 4.0 22:37:15 10° NW 22:44:59 80° WSW 22:45:03 80° SW
ATLAS 5 CENTAUR R/B 4.3 23:20:49 10° N 23:24:54 21° NE 23:27:06 17° ENE
SeaSat 1 4.1 23:27:54 10° N 23:31:05 30° NNW 23:31:05 30° NNW
USA 281 3.9 23:43:08 46° ENE 23:43:09 46° ENE 23:49:22 10° NNW
